Location: Unspecified
(51.0950°N, 12.9690°E)
Time: 04:12:48
(UTC+00:00)

EO-79 - Pass Details

Date: 02 May 2024
Orbit: 562 x 575 km, 98.0° (Epoch: 27 May)

Event Time Altitude Azimuth Distance (km) Brightness Sun altitude
Rises 02:59:03 0° 9° (N) 2,803 ? -6.2°
Reaches altitude 10° 03:01:16 10° 4° (N) 1,901 ? -5.9°
Maximum altitude 03:05:12 46° 291° (WNW) 782 ? -5.4°
Drops below altitude 10° 03:09:07 10° 218° (SW) 1,886 ? -4.9°
Enters shadow 03:10:30 - 214° (SW) 2,448 ? -4.7°
